This is the latest recevied weather packets stored in our database for station/object M0UPS-13. If no packets are shown the sender has not sent any weather packets the latest 10 day(s).
| Time | Temp. | Humidity | Pressure | Rain* | Wind** | Luminosity | Snow |
|---|---|---|---|---|---|---|---|
| 1777906503 | 16.67° C | 68% | 1014.4 hPa | 0 mm | - | 195 W/m² | - |
| 1777906203 | 16.67° C | 69% | 1014.4 hPa | 0 mm | - | 214 W/m² | - |
| 1777905903 | 16.67° C | 69% | 1014.3 hPa | 0 mm | - | 202 W/m² | - |
| 1777905603 | 16.11° C | 69% | 1014.5 hPa | 0 mm | - | 188 W/m² | - |
| 1777905302 | 16.11° C | 69% | 1014.6 hPa | 0 mm | - | 174 W/m² | - |
| 1777905003 | 16.11° C | 72% | 1014.6 hPa | 0 mm | - | 172 W/m² | - |
| 1777904702 | 16.11° C | 70% | 1014.4 hPa | 0 mm | - | 173 W/m² | - |
| 1777904402 | 15.56° C | 71% | 1014.5 hPa | 0 mm | - | 153 W/m² | - |
| 1777904102 | 15.56° C | 73% | 1014.5 hPa | 0 mm | - | 154 W/m² | - |
| 1777903802 | 15.56° C | 71% | 1014.5 hPa | 0 mm | - | 155 W/m² | - |
| 1777903503 | 15.56° C | 71% | 1014.4 hPa | 0 mm | - | 151 W/m² | - |
| 1777903202 | 15.56° C | 71% | 1014.6 hPa | 0 mm | - | 162 W/m² | - |
| 1777902903 | 15.56° C | 72% | 1014.5 hPa | 0 mm | - | 170 W/m² | - |
| 1777902602 | 15.56° C | 71% | 1014.3 hPa | 0 mm | - | 166 W/m² | - |
| 1777902302 | 15.56° C | 71% | 1014.5 hPa | 0 mm | - | 140 W/m² | - |
| 1777902002 | 16.11° C | 71% | 1014.4 hPa | 0 mm | - | 150 W/m² | - |
| 1777901702 | 16.11° C | 72% | 1014.6 hPa | 0 mm | - | 151 W/m² | - |
| 1777901402 | 16.11° C | 71% | 1014.7 hPa | 0 mm | - | 125 W/m² | - |
| 1777901102 | 16.11° C | 72% | 1014.6 hPa | 0 mm | - | 149 W/m² | - |
| 1777900802 | 15.56° C | 74% | 1014.7 hPa | 0 mm | - | 158 W/m² | - |
| 1777900502 | 15.56° C | 71% | 1014.5 hPa | 0 mm | - | 144 W/m² | - |
| 1777900202 | 15.56° C | 72% | 1014.5 hPa | 0 mm | - | 149 W/m² | - |
| 1777899903 | 15.56° C | 71% | 1014.6 hPa | 0 mm | - | 157 W/m² | - |
| 1777899603 | 15.56° C | 71% | 1014.5 hPa | 0 mm | - | 189 W/m² | - |
| 1777899303 | 15.56° C | 71% | 1014.5 hPa | 0 mm | - | 176 W/m² | - |
* Rain latest hour (hover to see other rain measurements)
** Current wind speed in m/s (hover to see current wind gust speed)